Main page
METAR-TAF:

METAR-TAF

Airports :

Kalaleh Airport

Kalaleh, Iran

latitude: 37-22-60N, longitude: 55-27-07E, elevation: 130 m

Current weather observation

The report was made 13 minutes ago, at 21:00 UTC
Calm wind
Temperature 7°C
Humidity 93%
Pressure 1019 hPa
Visibility 10 km or more
Few clouds at a height of 3000 ft

METAR: OINE 102100Z 00000KT 9999 FEW030 07/06 Q1019

Time: 00:43 (21:13 UTC)


TAF: missing

Weather observations and forecasts of more than 4000 airports (METAR and TAF reports).

The available stations are represented by yellow and red dots on the map.

Hover mouse over dot to see the name of the station.

Then click to see weather observations and forecasts.

To change the map : click on the green buttons with a black cross to zoom in, on the green button with a dash to zoom out, or on the green arrows for adjacent maps.


METAR-TAF: